Вернуться в каталог

DELTA 1 DEB

АктивенSSO
NORAD 10763·DEBRIS·🇺🇸 United States

Запущен Jul 29, 1976 с Vandenberg Space Force Base

Loading…

Ближайшие Пролёты (ближайшие 24 часа)

TLE

СвежийSource: Space-Track

Эпоха: Sep 14, 2026, 10:07 UTC

1 10763U 76077BL  26257.42220206 -.00000006  00000-0  31652-3 0  9991
2 10763 102.2567 226.1705 0045564 224.9603 289.8032 12.33867455257487

Отслеживайте DELTA 1 DEB в реальном времени с AllMySat

Download on the App Store